WetterOnline ( https://www.wetteronline.de )

Wetter aktuell Soltau

Aktuelles Wetter: Soltau (76m)

6-stündlich | Neueste Meldungen
Ortszeit Temperatur Wetter
Mi, 17.07. 14:00 19.4° C leicht bewölkt
Mi, 17.07. 8:00 12.9° C bedeckt
Mi, 17.07. 2:00 13.3° C bedeckt
Di, 16.07. 20:00 17.5° C bewölkt
Di, 16.07. 14:00 17.1° C bedeckt
Di, 16.07. 8:00 12.8° C Sprühregen
Di, 16.07. 2:00 13.3° C bedeckt
Mo, 15.07. 20:00 16.3° C bewölkt
Ortszeit Temperatur Wetter
Mi, 17.07. 17:00 20.9° C wolkenlos
Mi, 17.07. 16:50 20.9° C wolkenlos
Mi, 17.07. 16:40 20.8° C fast wolkenlos
Mi, 17.07. 16:30 20.9° C leicht bewölkt
Mi, 17.07. 16:20 20.9° C leicht bewölkt
Mi, 17.07. 16:10 21.2° C leicht bewölkt
Mi, 17.07. 16:00 21.5° C leicht bewölkt
Mi, 17.07. 15:30 20.5° C fast wolkenlos
Mi, 17.07. 15:00 19.9° C leicht bewölkt
Mi, 17.07. 14:30 19.8° C leicht bewölkt
Mi, 17.07. 14:00 19.4° C leicht bewölkt
Ortszeit Relative Feuchte Sichtweite
Mi, 17.07. 14:00 52% 50 km
Mi, 17.07. 8:00 77% 35 km
Mi, 17.07. 2:00 85% 40 km
Di, 16.07. 20:00 68% 65 km
Di, 16.07. 14:00 74% >70 km
Di, 16.07. 8:00 94% 2.5 km
Di, 16.07. 2:00 80% 45 km
Mo, 15.07. 20:00 60% 40 km
Ortszeit Relative Feuchte Sichtweite
Mi, 17.07. 17:00 45% 60 km
Mi, 17.07. 16:50 45% -
Mi, 17.07. 16:40 44% -
Mi, 17.07. 16:30 46% 60 km
Mi, 17.07. 16:20 46% -
Mi, 17.07. 16:10 46% -
Mi, 17.07. 16:00 46% 50 km
Mi, 17.07. 15:30 50% 35 km
Mi, 17.07. 15:00 49% 60 km
Mi, 17.07. 14:30 51% 45 km
Mi, 17.07. 14:00 52% 50 km
Ortszeit Niederschlagsmenge Niederschlagsart
Mi, 17.07. 14:00 0.0 l/m2 in 6 Std. -
Mi, 17.07. 8:00 0.0 l/m2 in 12 Std. -
Mi, 17.07. 2:00 0.0 l/m2 in 6 Std. -
Di, 16.07. 20:00 0.1 l/m2 in 12 Std. -
Di, 16.07. 14:00 0.1 l/m2 in 6 Std. Regen
Di, 16.07. 8:00 0.5 l/m2 in 12 Std. Sprühregen
Di, 16.07. 2:00 0.0 l/m2 in 6 Std. -
Mo, 15.07. 20:00 0.1 l/m2 in 12 Std. -
Ortszeit Niederschlagsmenge Niederschlagsart
Mi, 17.07. 17:00 0.0 l/m2 in 1 Std. -
Mi, 17.07. 16:50 keine Meldung -
Mi, 17.07. 16:40 keine Meldung -
Mi, 17.07. 16:30 0.0 l/m2 in 1 Std. -
Mi, 17.07. 16:20 keine Meldung -
Mi, 17.07. 16:10 keine Meldung -
Mi, 17.07. 16:00 0.0 l/m2 in 1 Std. -
Mi, 17.07. 15:30 0.0 l/m2 in 1 Std. -
Mi, 17.07. 15:00 0.0 l/m2 in 1 Std. -
Mi, 17.07. 14:30 0.0 l/m2 in 1 Std. -
Mi, 17.07. 14:00 0.0 l/m2 in 1 Std. -
Ortszeit Stärke Spitze Richtung
km/h Bft. km/h Grad Sektor
Mi, 17.07. 14:00 6 1 24 270° W
Mi, 17.07. 8:00 11 2 22 310° NW
Mi, 17.07. 2:00 9 2 28 300° NW
Di, 16.07. 20:00 17 3 37 300° NW
Di, 16.07. 14:00 14 3 36 270° W
Di, 16.07. 8:00 15 3 28 270° W
Di, 16.07. 2:00 14 3 36 280° W
Mo, 15.07. 20:00 19 3 33 310° NW
Ortszeit Stärke Spitze Richtung
km/h Bft. km/h Grad Sektor
Mi, 17.07. 17:00 11 2 22 310° NW
Mi, 17.07. 16:50 11 2 - 310° NW
Mi, 17.07. 16:40 9 2 - 360° N
Mi, 17.07. 16:30 11 2 22 10° N
Mi, 17.07. 16:20 11 2 - 10° N
Mi, 17.07. 16:10 7 2 - 310° NW
Mi, 17.07. 16:00 9 2 22 280° W
Mi, 17.07. 15:30 11 2 22 340° N
Mi, 17.07. 15:00 11 2 22 310° NW
Mi, 17.07. 14:30 13 3 20 300° NW
Mi, 17.07. 14:00 6 1 24 270° W
Ortszeit Untergrenze Bedeckung Gattung
total tief tief mittel hoch
Mi, 17.07. 14:00 960 m 4/8 4/8 - - -
Mi, 17.07. 8:00 480 m 8/8 8/8 - - -
Mi, 17.07. 2:00 660 m 8/8 8/8 - - -
Di, 16.07. 20:00 720 m 7/8 7/8 - - -
Di, 16.07. 14:00 570 m 8/8 8/8 - - -
Di, 16.07. 8:00 150 m 7/8 7/8 - - -
Di, 16.07. 2:00 540 m 8/8 8/8 - - -
Mo, 15.07. 20:00 1080 m 7/8 7/8 - - -
Ortszeit Bedeckungsgrad in Achtel und Wolkenuntergrenze
Mi, 17.07. 17:00 keine Wolken
Mi, 17.07. 16:50 keine Wolken
Mi, 17.07. 16:40 1(1320m)
Mi, 17.07. 16:30 3(1320m)
Mi, 17.07. 16:20 3(1320m)
Mi, 17.07. 16:10 3(1320m) 4(8400m)
Mi, 17.07. 16:00 2(7500m) 4(8400m)
Mi, 17.07. 15:30 1(1110m)
Mi, 17.07. 15:00 3(1110m)
Mi, 17.07. 14:30 2(1020m)
Mi, 17.07. 14:00 4(960m)
Ortszeit Luftdruck NN (hPa) Tendenz (hPa in 3 Std.)
Mi, 17.07. 14:00 1016 - 0,3
Mi, 17.07. 8:00 1016 - 0,1
Mi, 17.07. 2:00 1017 0,0
Di, 16.07. 20:00 1016 + 0,2
Di, 16.07. 14:00 1016 0,0
Di, 16.07. 8:00 1016 - 0,1
Di, 16.07. 2:00 1017 - 0,5
Mo, 15.07. 20:00 1017 - 0,8
Ortszeit Luftdruck NN (hPa) Tendenz (hPa in 3 Std.)
Mi, 17.07. 17:00 1014 - 1,1
Mi, 17.07. 16:50 1014 keine Meldung
Mi, 17.07. 16:40 1014 keine Meldung
Mi, 17.07. 16:30 1015 - 0,9
Mi, 17.07. 16:20 1015 keine Meldung
Mi, 17.07. 16:10 1015 keine Meldung
Mi, 17.07. 16:00 1015 - 0,8
Mi, 17.07. 15:30 1015 - 0,7
Mi, 17.07. 15:00 1015 - 0,6
Mi, 17.07. 14:30 1015 - 0,4
Mi, 17.07. 14:00 1016 - 0,3
Ortszeit Schneehöhe (cm)
Mi, 17.07. 14:00 -
Mi, 17.07. 8:00 -
Mi, 17.07. 2:00 -
Di, 16.07. 20:00 -
Di, 16.07. 14:00 -
Di, 16.07. 8:00 -
Di, 16.07. 2:00 -
Mo, 15.07. 20:00 -
Ortszeit Schneehöhe (cm)
Mi, 17.07. 17:00 -
Mi, 17.07. 16:50 -
Mi, 17.07. 16:40 -
Mi, 17.07. 16:30 -
Mi, 17.07. 16:20 -
Mi, 17.07. 16:10 -
Mi, 17.07. 16:00 -
Mi, 17.07. 15:30 -
Mi, 17.07. 15:00 -
Mi, 17.07. 14:30 -
Mi, 17.07. 14:00 -
Link zu dieser Seite / Seite empfehlen

Das Wetter in ...